Location: Temple Hill
(37.3073°N, 88.6303°W)
Time: 17:32:18
(UTC+00:00)

Cosmos 1606 - Pass Details

Date: 23 November 2020
Orbit: 502 x 527 km, 82.5° (Epoch: 20 January)

Event Time Altitude Azimuth Distance (km) Brightness Sun altitude
Rises 23:31:01 0° 179° (S) 2,645 6.5 -10.4°
Reaches altitude 10° 23:33:09 10° 176° (S) 1,763 5.6 -10.8°
Maximum altitude 23:37:00 65° 94° (E) 585 2.7 -11.5°
Drops below altitude 10° 23:40:52 10° 13° (NNE) 1,779 5.1 -12.2°
Sets 23:43:02 0° 11° (N) 2,672 6.1 -12.7°
